Overview Statistics Trail Chart Weather Telemetry Raw packets
 

This is the latest recevied weather packets stored in our database for station/object IU1OLT-6. If no packets are shown the sender has not sent any weather packets the latest 10 day(s).

<< 4 5 6 7 8 9 10 >>
Time Temp. Humidity Pressure Rain* Wind** Luminosity Snow
1788557888 15.56° C 62% 1016 hPa 0 mm - - -
1788556928 15.56° C 60% 1016 hPa 0 mm - - -
1788555968 15.56° C 57% 1016.3 hPa 0 mm - - -
1788555008 16.11° C 57% 1016.1 hPa 0 mm - - -
1788554048 16.67° C 52% 1016.4 hPa 0 mm - - -
1788553135 16.67° C 47% 1016.1 hPa 0 mm - - -
1788552224 16.67° C 44% 1016.5 hPa 0 mm - - -
1788551264 16.67° C 30% 1016.4 hPa 0 mm - - -
1788550352 16.67° C 38% 1016.3 hPa 0 mm - - -
1788549440 16.67° C 44% 1016.4 hPa 0 mm - - -
1788548480 16.67° C 55% 1016.5 hPa 0 mm - - -
1788547520 16.67° C 48% 1016.4 hPa 0 mm - - -
1788546560 16.11° C 61% 1016.3 hPa 0 mm - - -
1788545680 16.11° C 63% 1016.3 hPa 0 mm - - -
1788545648 16.11° C 63% 1016.3 hPa 0 mm - - -
1788544736 16.11° C 62% 1016.1 hPa 0 mm - - -
1788543776 16.67° C 58% 1015.9 hPa 0 mm - - -
1788542816 16.67° C 57% 1015.8 hPa 0 mm - - -
1788541856 17.22° C 50% 1016 hPa 0 mm - - -
1788540896 17.78° C 50% 1016.1 hPa 0 mm - - -
1788539984 17.78° C 46% 1016.2 hPa 0 mm - - -
1788538160 19.44° C 39% 1016.5 hPa 0 mm - - -
1788537248 18.89° C 43% 1016.4 hPa 0 mm - - -
1788536288 18.33° C 49% 1016.6 hPa 0 mm - - -
1788535328 18.33° C 52% 1016.8 hPa 0 mm - - -

* Rain latest hour (hover to see other rain measurements)
** Current wind speed in m/s (hover to see current wind gust speed)